When you browse on this site, cookies collect data to enhance your experience and personalize the content and advertising you see.
Visit our Privacy Policy to learn more. By continuing to use the site, you agree to this use of cookies and data.
  • In Austria
  • List of Countries
  • For 7 days
  • Water Temperature
  • Weather Map
  • News
  • Weather Widgets
  • user-avatar
    Login

    Hourly Weather Emiliano Zapata

    Today, 29 May, Friday

    Time Temperature Precipitation Wind Pressure Humidity
    00:00 +14°C° 0 mm 1 mps 567 mmHg 67%
    01:00 +14°C° 0 mm 1 mps 566 mmHg 70%
    02:00 +13°C° 0 mm 1 mps 565 mmHg 74%
    03:00 +13°C° 0 mm 1 mps 565 mmHg 75%
    04:00 +12°C° 0 mm 1 mps 565 mmHg 75%
    05:00 +12°C° 0 mm 1 mps 565 mmHg 78%
    06:00 +14°C° 0 mm 1 mps 566 mmHg 69%
    07:00 +16°C° 0 mm 2 mps 568 mmHg 61%
    08:00 +18°C° 0 mm 2 mps 569 mmHg 52%
    09:00 +19°C° 0.1 mm 2 mps 569 mmHg 48%
    10:00 +20°C° 0.1 mm 2 mps 569 mmHg 45%
    11:00 +21°C° 0.1 mm 2 mps 570 mmHg 42%
    12:00 +20°C° 1.1 mm 2 mps 569 mmHg 48%
    13:00 +19°C° 1.1 mm 2 mps 567 mmHg 54%
    14:00 +18°C° 1.1 mm 2 mps 566 mmHg 61%
    15:00 +17°C° 1.4 mm 3 mps 566 mmHg 64%
    16:00 +17°C° 1.4 mm 3 mps 566 mmHg 68%
    17:00 +16°C° 1.4 mm 3 mps 566 mmHg 71%
    18:00 +16°C° 1 mm 3 mps 566 mmHg 75%
    19:00 +15°C° 1 mm 2 mps 567 mmHg 78%
    20:00 +14°C° 1 mm 2 mps 567 mmHg 82%
    21:00 +14°C° 0.3 mm 2 mps 567 mmHg 82%
    22:00 +14°C° 0.3 mm 1 mps 567 mmHg 83%
    23:00 +14°C° 0.3 mm 1 mps 567 mmHg 84%

    Tomorrow, 30 May, Saturday

    Time Temperature Precipitation Wind Pressure Humidity
    00:00 +13°C° 0.1 mm 1 mps 566 mmHg 85%
    01:00 +13°C° 0.1 mm 1 mps 565 mmHg 87%
    02:00 +12°C° 0.1 mm 1 mps 565 mmHg 88%
    03:00 +12°C° 0 mm 1 mps 565 mmHg 89%
    04:00 +11°C° 0 mm 1 mps 565 mmHg 90%
    05:00 +11°C° 0 mm 1 mps 564 mmHg 91%
    06:00 +12°C° 0 mm 1 mps 565 mmHg 84%
    07:00 +14°C° 0 mm 1 mps 566 mmHg 76%
    08:00 +15°C° 0 mm 2 mps 567 mmHg 69%
    09:00 +17°C° 0 mm 2 mps 567 mmHg 63%
    10:00 +18°C° 0 mm 3 mps 568 mmHg 56%
    11:00 +20°C° 0 mm 3 mps 568 mmHg 50%
    12:00 +20°C° 0.2 mm 3 mps 568 mmHg 51%
    13:00 +20°C° 0.2 mm 4 mps 567 mmHg 51%
    14:00 +20°C° 0.2 mm 4 mps 567 mmHg 52%
    15:00 +19°C° 0.4 mm 4 mps 566 mmHg 56%
    16:00 +18°C° 0.4 mm 4 mps 566 mmHg 60%
    17:00 +17°C° 0.4 mm 4 mps 565 mmHg 64%
    18:00 +16°C° 0 mm 3 mps 565 mmHg 71%
    19:00 +15°C° 0 mm 2 mps 565 mmHg 77%
    20:00 +13°C° 0 mm 2 mps 565 mmHg 83%
    21:00 +13°C° 0 mm 2 mps 565 mmHg 84%
    22:00 +13°C° 0 mm 1 mps 566 mmHg 84%
    23:00 +13°C° 0 mm 1 mps 566 mmHg 84%

    Day after tomorrow, 31 May, Sunday

    Time Temperature Precipitation Wind Pressure Humidity
    00:00 +13°C° 0 mm 1 mps 565 mmHg 84%
    01:00 +13°C° 0 mm 1 mps 565 mmHg 84%
    02:00 +13°C° 0 mm 1 mps 565 mmHg 83%
    03:00 +12°C° 0 mm 1 mps 565 mmHg 85%
    04:00 +12°C° 0 mm 1 mps 564 mmHg 87%
    05:00 +10°C° 0 mm 0 mps 564 mmHg 90%
    06:00 +13°C° 0 mm 1 mps 565 mmHg 81%
    07:00 +15°C° 0 mm 1 mps 566 mmHg 72%
    08:00 +18°C° 0 mm 1 mps 568 mmHg 63%
    09:00 +18°C° 0 mm 2 mps 568 mmHg 56%
    10:00 +20°C° 0 mm 2 mps 569 mmHg 49%
    11:00 +21°C° 0 mm 2 mps 569 mmHg 43%
    12:00 +21°C° 0.2 mm 3 mps 569 mmHg 45%
    13:00 +21°C° 0.2 mm 4 mps 568 mmHg 47%
    14:00 +21°C° 0.2 mm 5 mps 567 mmHg 50%
    15:00 +20°C° 0.7 mm 4 mps 567 mmHg 57%
    16:00 +19°C° 0.7 mm 4 mps 566 mmHg 63%
    17:00 +17°C° 0.7 mm 4 mps 565 mmHg 70%
    18:00 +16°C° 0.1 mm 3 mps 566 mmHg 75%
    19:00 +14°C° 0.1 mm 3 mps 566 mmHg 79%
    20:00 +15°C° 0.1 mm 2 mps 566 mmHg 83%
    21:00 +14°C° 0.1 mm 2 mps 566 mmHg 84%
    22:00 +14°C° 0.1 mm 2 mps 566 mmHg 85%
    23:00 +14°C° 0.1 mm 2 mps 566 mmHg 85%

    1 June, Monday

    Time Temperature Precipitation Wind Pressure Humidity
    00:00 +14°C° 0 mm 2 mps 566 mmHg 86%
    01:00 +14°C° 0 mm 1 mps 566 mmHg 86%
    02:00 +14°C° 0 mm 1 mps 565 mmHg 86%
    03:00 +14°C° 0 mm 1 mps 566 mmHg 86%
    04:00 +14°C° 0 mm 1 mps 566 mmHg 86%
    05:00 +14°C° 0 mm 1 mps 566 mmHg 86%
    06:00 +15°C° 0 mm 2 mps 567 mmHg 81%
    07:00 +16°C° 0 mm 2 mps 567 mmHg 75%
    08:00 +17°C° 0 mm 2 mps 568 mmHg 69%
    09:00 +18°C° 0.2 mm 2 mps 568 mmHg 66%
    10:00 +19°C° 0.2 mm 2 mps 569 mmHg 62%
    11:00 +20°C° 0.2 mm 3 mps 569 mmHg 58%
    12:00 +20°C° 1 mm 3 mps 569 mmHg 59%
    13:00 +21°C° 1 mm 3 mps 568 mmHg 59%
    14:00 +21°C° 1 mm 4 mps 568 mmHg 60%
    15:00 +20°C° 0.8 mm 4 mps 567 mmHg 64%
    16:00 +19°C° 0.8 mm 4 mps 567 mmHg 69%
    17:00 +17°C° 0.8 mm 5 mps 566 mmHg 73%
    18:00 +17°C° 0.2 mm 4 mps 566 mmHg 77%
    19:00 +16°C° 0.2 mm 3 mps 566 mmHg 82%
    20:00 +15°C° 0.2 mm 2 mps 566 mmHg 86%
    21:00 +15°C° 0.7 mm 2 mps 566 mmHg 87%
    22:00 +15°C° 0.7 mm 2 mps 567 mmHg 88%
    23:00 +15°C° 0.7 mm 2 mps 567 mmHg 89%

    2 June, Tuesday

    Time Temperature Precipitation Wind Pressure Humidity
    00:00 +14°C° 0.2 mm 2 mps 566 mmHg 89%
    01:00 +14°C° 0.2 mm 1 mps 566 mmHg 88%
    02:00 +14°C° 0.2 mm 1 mps 566 mmHg 88%
    03:00 +14°C° 0 mm 1 mps 566 mmHg 87%
    04:00 +14°C° 0 mm 2 mps 566 mmHg 86%
    05:00 +14°C° 0 mm 2 mps 566 mmHg 85%
    06:00 +15°C° 0 mm 2 mps 567 mmHg 81%
    07:00 +16°C° 0 mm 2 mps 567 mmHg 76%
    08:00 +17°C° 0 mm 2 mps 568 mmHg 71%
    09:00 +18°C° 0 mm 3 mps 568 mmHg 67%
    10:00 +19°C° 0 mm 3 mps 569 mmHg 62%
    11:00 +21°C° 0 mm 4 mps 569 mmHg 58%
    12:00 +21°C° 0.5 mm 5 mps 568 mmHg 59%
    13:00 +21°C° 0.5 mm 5 mps 568 mmHg 60%
    14:00 +21°C° 0.5 mm 6 mps 568 mmHg 61%
    15:00 +20°C° 0.2 mm 5 mps 567 mmHg 64%
    16:00 +19°C° 0.2 mm 5 mps 567 mmHg 68%
    17:00 +18°C° 0.2 mm 4 mps 566 mmHg 71%
    18:00 +17°C° 0 mm 4 mps 566 mmHg 75%
    19:00 +16°C° 0 mm 3 mps 567 mmHg 78%
    20:00 +16°C° 0 mm 3 mps 567 mmHg 82%
    21:00 +14°C° 0 mm 3 mps 567 mmHg 82%
    22:00 +14°C° 0 mm 3 mps 567 mmHg 82%
    23:00 +14°C° 0 mm 3 mps 567 mmHg 82%

    3 June, Wednesday

    Time Temperature Precipitation Wind Pressure Humidity
    00:00 +15°C° 0 mm 2 mps 566 mmHg 84%
    01:00 +14°C° 0 mm 2 mps 566 mmHg 86%
    02:00 +14°C° 0 mm 2 mps 565 mmHg 87%
    03:00 +14°C° 0 mm 2 mps 565 mmHg 87%
    04:00 +14°C° 0 mm 2 mps 565 mmHg 87%
    05:00 +14°C° 0 mm 1 mps 566 mmHg 87%
    06:00 +15°C° 0 mm 2 mps 566 mmHg 82%
    07:00 +16°C° 0 mm 2 mps 567 mmHg 77%
    08:00 +17°C° 0 mm 2 mps 568 mmHg 72%
    09:00 +18°C° 0.1 mm 3 mps 568 mmHg 70%
    10:00 +18°C° 0.1 mm 3 mps 568 mmHg 68%
    11:00 +19°C° 0.1 mm 4 mps 568 mmHg 65%
    12:00 +20°C° 0.3 mm 4 mps 568 mmHg 63%
    13:00 +21°C° 0.3 mm 5 mps 568 mmHg 60%
    14:00 +22°C° 0.3 mm 5 mps 567 mmHg 58%
    15:00 +20°C° 0.3 mm 5 mps 567 mmHg 63%
    16:00 +19°C° 0.3 mm 5 mps 566 mmHg 68%
    17:00 +17°C° 0.3 mm 5 mps 566 mmHg 73%
    18:00 +17°C° 0.1 mm 4 mps 566 mmHg 76%
    19:00 +16°C° 0.1 mm 3 mps 566 mmHg 78%
    20:00 +16°C° 0.1 mm 2 mps 566 mmHg 81%
    21:00 +16°C° 0.5 mm 2 mps 566 mmHg 83%
    22:00 +15°C° 0.5 mm 2 mps 566 mmHg 85%
    23:00 +15°C° 0.5 mm 2 mps 566 mmHg 86%
    Show more